Skip to main content.
 TIME   TEMPERATURE   WINDSPEED   DIRECTION   HUMIDITY   BAROMETER   RAINFALL 
2:35 17.0°C (62.6°F) 7.4 kmh (4.6 mph) WNW 82% 1016.9hPa (30.03 inHg) 0.0mm (0.00 in.)
1:35 17.0°C (62.6 °F) 13.0 kmh (8.1 mph) WNW 88% 1016.9hPa (30.03 inHg) 0.0mm (0.00 in.)
12:35 17.0°C (62.6 °F) 13.0 kmh (8.1 mph) W 88% 1017.9hPa (30.06 inHg) 0.0mm (0.00 in.)
11:35 18.0°C (64.4 °F) 11.1 kmh (6.9 mph) WSW 77% 1017.9hPa (30.06 inHg) 0.0mm (0.00 in.)
10:35 19.0°C (66.2 °F) 11.1 kmh (6.9 mph) S 68% 1017.9hPa (30.06 inHg) 0.0mm (0.00 in.)
9:35 19.0°C (66.2 °F) 16.7 kmh (10.4 mph) S 68% 1016.9hPa (30.03 inHg) 0.0mm (0.00 in.)
8:35 21.0°C (69.8 °F) 3.7 kmh (2.3 mph) NNW 43% 1016.9hPa (30.03 inHg) 0.0mm (0.00 in.)
7:35 21.0°C (69.8 °F) 11.1 kmh (6.9 mph) NNW 49% 1016.9hPa (30.03 inHg) 0.0mm (0.00 in.)
6:35 24.0°C (75.2 °F) 18.5 kmh (11.5 mph) NW 33% 1016.9hPa (30.03 inHg) 0.0mm (0.00 in.)
5:35 24.0°C (75.2 °F) 14.8 kmh (9.2 mph) NNW 31% 1016.9hPa (30.03 inHg) 0.0mm (0.00 in.)
4:35 24.0°C (75.2 °F) 20.4 kmh (12.7 mph) N 27% 1016.9hPa (30.03 inHg) 0.0mm (0.00 in.)
3:35 24.0°C (75.2 °F) 18.5 kmh (11.5 mph) N 27% 1016.9hPa (30.03 inHg) 0.0mm (0.00 in.)
2:35 25.0°C (77.0 °F) 18.5 kmh (11.5 mph) N 27% 1016.9hPa (30.03 inHg) 0.0mm (0.00 in.)
1:35 24.0°C (75.2 °F) 18.5 kmh (11.5 mph) NNE 33% 1016.9hPa (30.03 inHg) 0.0mm (0.00 in.)
12:35 23.0°C (73.4 °F) 13.0 kmh (8.1 mph) NNE 38% 1017.9hPa (30.06 inHg) 0.0mm (0.00 in.)
11:35 22.0°C (71.6 °F) 7.4 kmh (4.6 mph) N 37% 1017.9hPa (30.06 inHg) 0.0mm (0.00 in.)
10:35 22.0°C (71.6 °F) 14.8 kmh (9.2 mph) N 40% 1017.9hPa (30.06 inHg) 0.0mm (0.00 in.)
9:35 19.0°C (66.2 °F) 14.8 kmh (9.2 mph) NNW 52% 1017.9hPa (30.06 inHg) 0.0mm (0.00 in.)
8:35 18.0°C (64.4 °F) 9.3 kmh (5.8 mph) NNW 63% 1017.9hPa (30.06 inHg) 0.0mm (0.00 in.)
7:35 17.0°C (62.6 °F) 3.7 kmh (2.3 mph) NW 72% 1017.9hPa (30.06 inHg) 0.0mm (0.00 in.)
6:35 16.0°C (60.8 °F) 9.3 kmh (5.8 mph) NNW 67% 1016.9hPa (30.03 inHg) 0.0mm (0.00 in.)
5:35 17.0°C (62.6 °F) 11.1 kmh (6.9 mph) W 63% 1016.9hPa (30.03 inHg) 0.0mm (0.00 in.)
4:35 17.0°C (62.6 °F) 11.1 kmh (6.9 mph) WSW 67% 1016.9hPa (30.03 inHg) 0.0mm (0.00 in.)
3:35 17.0°C (62.6 °F) 11.1 kmh (6.9 mph) WSW 63% 1017.9hPa (30.06 inHg) 0.0mm (0.00 in.)